[[{"header":{"parameterUnit":"m.s-1","parameterCategory":1,"la1":30.2991,"la2":30.254,"lo1":-89.0895,"lo2":-89.0444,"dy":0.0017,"dx":0.0017,"nx":28,"ny":28,"refTime":"2024-12-01T03:00:00:Z","depth":0,"parameterNumber":2,"parameterNumberName":"U-component_of_WINDS"},"data":[0,0,0,0,0,0,0,0,0,0,0,0,0,0,0,0,0,0,0,0,0,0,0,0,0,0,0,0,0,0,0,0,0,0,0,0,0,0,0,0,0,0,0,0,0,0,0,0,0,0,0,0,0,0,0,0,0,0,-1.4478,-1.4478,0,-1.4478,-1.4478,-1.4478,-1.436,-1.4357,-1.4354,-1.4351,-1.4352,-1.4355,-1.4358,0,0,0,0,0,0,0,0,0,0,0,0,0,-1.4376,-1.4378,-1.4478,-1.4478,-1.4478,-1.4478,-1.4478,-1.4478,-1.4361,-1.4357,-1.4353,-1.435,-1.4351,-1.4355,-1.4358,0,0,0,0,0,0,0,0,0,0,0,0,0,-1.4403,-1.4379,-1.4478,-1.4419,-1.4414,-1.4478,-1.4478,-1.4478,-1.4362,-1.4357,-1.4352,-1.4348,-1.435,-1.4354,-1.4359,-1.4479,0,0,-1.4372,-1.4374,0,0,0,0,0,0,0,0,-1.4401,-1.4407,-1.4428,-1.4423,-1.4418,-1.4414,-1.4442,-1.4479,-1.4363,-1.4382,-1.4351,-1.4346,-1.4377,-1.4379,-1.4389,-1.4479,-1.4479,-1.4372,-1.4375,-1.4377,-1.4378,0,0,0,0,0,0,0,-1.44,-1.4406,-1.4478,-1.4428,-1.4422,-1.4393,-1.4392,-1.4449,-1.4405,-1.438,-1.4371,-1.4373,-1.4373,-1.4385,-1.4388,-1.4479,-1.4372,-1.4376,-1.4379,-1.438,-1.4668,-1.4673,0,0,0,0,0,0,-1.4406,-1.4405,-1.4478,-1.4478,-1.4398,-1.4399,-1.4397,-1.442,-1.4404,-1.4397,-1.4377,-1.4367,-1.438,-1.4383,-1.4388,-1.4527,-1.4377,-1.4381,-1.4383,-1.4663,-1.4669,-1.4674,0,0,0,0,0,0,-1.4404,-1.4413,-1.4478,-1.4439,-1.4445,-1.4406,-1.4432,-1.4423,-1.4434,-1.4402,-1.4394,-1.4397,-1.4376,-1.4381,-1.4457,-1.4526,-1.4383,-1.4387,-1.4657,-1.4665,-1.4672,-1.4808,0,0,0,0,0,0,-1.4402,-1.4413,-1.4459,-1.4441,-1.4448,-1.4548,-1.4436,-1.4426,-1.4442,-1.443,-1.4419,-1.4413,-1.4373,-1.4451,-1.4461,-1.4529,-1.439,-1.4651,-1.4661,-1.4669,-1.4797,-1.4819,-1.4838,0,0,0,0,0,-1.4398,-1.4497,-1.4461,-1.4471,-1.4503,-1.4552,-1.4556,-1.4508,-1.4448,-1.4493,-1.4473,-1.4413,-1.4517,-1.446,-1.447,-1.454,-1.4646,-1.4658,-1.4669,-1.4788,-1.4815,-1.4837,0,0,0,0,0,0,-1.4523,-1.4493,-1.4454,-1.455,-1.4554,-1.4532,-1.4587,-1.4538,-1.4559,-1.4547,-1.4487,-1.4485,-1.4571,-1.4563,-1.45,-1.4656,-1.4571,-1.4585,-1.4658,-1.4683,-1.4703,-1.4703,-1.4394,0,0,0,0,0,-1.4562,-1.4604,-1.4575,-1.4663,-1.4667,-1.4627,-1.4646,-1.4609,-1.4612,-1.4613,-1.4598,-1.4602,-1.4636,-1.4659,-1.4688,-1.4796,-1.4791,-1.4849,-1.487,-1.4887,-1.4899,-1.4955,-1.4981,-1.4711,-1.4711,-1.4711,0,0,-1.4642,-1.4631,-1.4661,-1.4688,-1.4687,-1.4731,-1.4629,-1.4681,-1.4713,-1.4621,-1.4691,-1.4681,-1.4682,-1.4774,-1.4814,-1.477,-1.4973,-1.4901,-1.4915,-1.4918,-1.497,-1.4995,-1.5018,-1.4719,-1.4718,-1.4717,0,0,-1.4811,-1.4807,-1.4879,-1.4881,-1.4881,-1.4854,-1.4872,-1.4857,-1.4846,-1.4916,-1.4847,-1.4885,-1.4945,-1.4948,-1.4958,-1.513,-1.5075,-1.5141,-1.5248,-1.5303,-1.5324,-1.5343,-1.5404,-1.5426,-1.5154,-1.5154,-1.5154,0,-1.491,-1.4975,-1.4923,-1.4979,-1.4993,-1.4911,-1.4984,-1.4988,-1.4998,-1.5009,-1.4961,-1.5033,-1.5028,-1.512,-1.5162,-1.5173,-1.5191,-1.5141,-1.5326,-1.5344,-1.536,-1.5417,-1.5441,-1.5162,-1.5161,-1.516,-1.516,0,-1.5097,-1.5143,-1.5202,-1.5213,-1.5234,-1.5298,-1.5256,-1.5283,-1.5245,-1.5223,-1.5296,-1.5287,-1.5313,-1.5332,-1.5295,-1.542,-1.5392,-1.5336,-1.5249,-1.5395,-1.5447,-1.5469,-1.5173,-1.5171,-1.5168,-1.5166,0,0,-1.5343,-1.5326,-1.5348,-1.5353,-1.5348,-1.5382,-1.5443,-1.5469,-1.5493,-1.5503,-1.5553,-1.5605,-1.5553,-1.5564,-1.5527,-1.5576,-1.5713,-1.5513,-1.5512,-1.555,-1.5849,-1.5891,-1.5917,-1.5677,-1.5681,-1.5684,-1.5848,0,-1.5506,-1.5609,-1.5564,-1.5672,-1.5714,-1.5638,-1.5691,-1.5694,-1.5676,-1.5709,-1.5688,-1.5727,-1.5655,-1.5661,-1.5706,-1.5687,-1.5772,-1.5674,-1.5722,-1.5725,-1.5723,-1.5945,-1.5989,-1.6144,-1.5869,-1.5872,-1.5875,0,-1.571,-1.5728,-1.584,-1.5828,-1.5844,-1.5893,-1.5913,-1.5945,-1.5947,-1.5931,-1.5944,-1.5896,-1.5955,-1.587,-1.5951,-1.5885,-1.5903,-1.5896,-1.5901,-1.5903,-1.5808,-1.5952,-1.6192,-1.6216,-1.5907,-1.5904,-1.5902,0,-1.5877,-1.5931,-1.6004,-1.6011,-1.5998,-1.6034,-1.6031,-1.6028,-1.6047,-1.6065,-1.6076,-1.6101,-1.6115,-1.6135,-1.6095,-1.6037,-1.6182,-1.6093,-1.6169,-1.617,-1.6202,-1.62,-1.6448,-1.6215,-1.6215,-1.6215,-1.6214,0,-1.6063,-1.6135,-1.6079,-1.6125,-1.6202,-1.6151,-1.623,-1.6218,-1.6217,-1.6258,-1.6195,-1.6235,-1.6181,-1.6216,-1.6186,-1.6257,-1.6264,-1.6252,-1.6243,-1.6257,-1.6259,-1.6267,-1.6255,-1.6221,-1.6219,-1.6218,-1.6217,0,-1.6263,-1.6229,-1.6304,-1.6287,-1.6284,-1.6343,-1.6328,-1.6369,-1.6347,-1.6401,-1.641,-1.6376,-1.6415,-1.6377,-1.6414,-1.6393,-1.6489,-1.6464,-1.6488,-1.6481,-1.6559,-1.6552,-1.682,-1.6852,-1.66,-1.6603,-1.6605,0,-1.6383,-1.6436,-1.6425,-1.6449,-1.6449,-1.6488,-1.6507,-1.6459,-1.6481,-1.6488,-1.6529,-1.6562,-1.6586,-1.6651,-1.6629,-1.6657,-1.6632,-1.6724,-1.6636,-1.6649,-1.6633,-1.6629,-1.6634,-1.6742,-1.6745,-1.6747,-1.6749,0,-1.66,-1.6581,-1.661,-1.6635,-1.6659,-1.6676,-1.6687,-1.671,-1.6661,-1.6689,-1.6728,-1.6747,-1.6784,-1.6818,-1.6839,-1.6835,-1.6785,-1.6778,-1.6797,-1.6811,-1.6822,-1.6817,-1.6536,-1.6771,-1.6769,-1.6767,-1.6766,-1.6765,-1.6763,-1.6807,-1.6806,-1.6841,-1.6845,-1.6858,-1.6896,-1.6879,-1.691,-1.6937,-1.6907,-1.6955,-1.6956,-1.6979,-1.6982,-1.7019,-1.698,-1.7007,-1.7014,-1.7022,-1.7033,-1.6818,-1.7022,-1.7022,-1.7021,-1.7021,-1.702,0,-1.6976,-1.6972,-1.7005,-1.7023,-1.7052,-1.7002,-1.7013,-1.7039,-1.7082,-1.7087,-1.7113,-1.7158,-1.719,-1.7172,-1.72,-1.7233,-1.721,-1.7242,-1.7238,-1.7238,-1.7066,-1.7047,-1.726,-1.726,-1.726,-1.726,-1.726,-1.726,-1.709,-1.7161,-1.7142,-1.7215,-1.721,-1.7257,-1.7267,-1.7279,-1.7283,-1.7336,-1.7363,-1.7351,-1.7347,-1.7375,-1.7403,-1.7396,-1.7409,-1.7449,-1.7435,-1.7274,-1.725,-1.7228,-1.7209,-1.7453,-1.7453,-1.7603,-1.7605,-1.7606]},{"header":{"parameterUnit":"m.s-1","parameterCategory":1,"la1":30.2991,"la2":30.254,"lo1":-89.0895,"lo2":-89.0444,"dy":0.0017,"dx":0.0017,"nx":28,"ny":28,"refTime":"2024-12-01T03:00:00:Z","depth":0,"parameterNumber":3,"parameterNumberName":"V-component_of_WINDS"},"data":[0,0,0,0,0,0,0,0,0,0,0,0,0,0,0,0,0,0,0,0,0,0,0,0,0,0,0,0,0,0,0,0,0,0,0,0,0,0,0,0,0,0,0,0,0,0,0,0,0,0,0,0,0,0,0,0,0,0,-1.35,-1.35,0,-1.3471,-1.3471,-1.347,-1.3414,-1.3413,-1.3412,-1.3411,-1.3383,-1.3383,-1.3384,0,0,0,0,0,0,0,0,0,0,0,0,0,-1.3509,-1.351,-1.35,-1.35,-1.35,-1.3471,-1.347,-1.347,-1.3415,-1.3413,-1.3412,-1.3411,-1.3383,-1.3383,-1.3384,0,0,0,0,0,0,0,0,0,0,0,0,0,-1.3495,-1.351,-1.35,-1.3468,-1.3465,-1.3471,-1.347,-1.347,-1.3415,-1.3413,-1.3412,-1.341,-1.3383,-1.3383,-1.3384,-1.3419,0,0,-1.3385,-1.3385,0,0,0,0,0,0,0,0,-1.3496,-1.3495,-1.3474,-1.3471,-1.3467,-1.3445,-1.3463,-1.3453,-1.3415,-1.3434,-1.3411,-1.3409,-1.3405,-1.3403,-1.3402,-1.3418,-1.3416,-1.3385,-1.3385,-1.3385,-1.3385,0,0,0,0,0,0,0,-1.3497,-1.3496,-1.3489,-1.3473,-1.3469,-1.3456,-1.3452,-1.3461,-1.3429,-1.3432,-1.3428,-1.3425,-1.3403,-1.3401,-1.3401,-1.3416,-1.3385,-1.3385,-1.3386,-1.3386,-1.3458,-1.346,0,0,0,0,0,0,-1.3503,-1.3497,-1.349,-1.3488,-1.3478,-1.3457,-1.3453,-1.3454,-1.3429,-1.3424,-1.3427,-1.3423,-1.3401,-1.34,-1.3399,-1.3439,-1.3385,-1.3386,-1.3386,-1.3457,-1.3459,-1.3461,0,0,0,0,0,0,-1.3503,-1.3503,-1.3491,-1.3491,-1.3489,-1.3458,-1.346,-1.3454,-1.3452,-1.3425,-1.3419,-1.3431,-1.34,-1.3399,-1.3414,-1.3437,-1.3386,-1.3386,-1.3455,-1.3457,-1.346,-1.3519,0,0,0,0,0,0,-1.3504,-1.3503,-1.3516,-1.3492,-1.3489,-1.3506,-1.3461,-1.3454,-1.3453,-1.3447,-1.3427,-1.3422,-1.3399,-1.3414,-1.3415,-1.3437,-1.3387,-1.3453,-1.3456,-1.3459,-1.3515,-1.3523,-1.353,0,0,0,0,0,-1.3504,-1.3535,-1.3517,-1.3517,-1.3505,-1.3508,-1.3506,-1.3478,-1.3455,-1.3468,-1.345,-1.3423,-1.3434,-1.3416,-1.3416,-1.3439,-1.3451,-1.3455,-1.3459,-1.3511,-1.3521,-1.353,0,0,0,0,0,0,-1.3563,-1.3531,-1.3511,-1.3535,-1.3524,-1.3498,-1.3514,-1.349,-1.3486,-1.3481,-1.3447,-1.3443,-1.3463,-1.3452,-1.3432,-1.3471,-1.3438,-1.3442,-1.3478,-1.3487,-1.3495,-1.3498,-1.3387,0,0,0,0,0,-1.3579,-1.3584,-1.3555,-1.3578,-1.3574,-1.3545,-1.3545,-1.3524,-1.3512,-1.3508,-1.3491,-1.3481,-1.3482,-1.3484,-1.3483,-1.3512,-1.3507,-1.3528,-1.3535,-1.3542,-1.3546,-1.356,-1.3569,-1.3473,-1.3473,-1.3473,0,0,-1.3612,-1.3594,-1.36,-1.359,-1.3579,-1.3585,-1.3542,-1.355,-1.3554,-1.3509,-1.3523,-1.351,-1.3496,-1.3518,-1.3527,-1.351,-1.3571,-1.3547,-1.3552,-1.3553,-1.3565,-1.3574,-1.3582,-1.3476,-1.3475,-1.3475,0,0,-1.3674,-1.3662,-1.368,-1.3669,-1.3653,-1.3633,-1.3638,-1.3615,-1.3605,-1.3617,-1.3583,-1.3588,-1.359,-1.3582,-1.3578,-1.3636,-1.3611,-1.3636,-1.3678,-1.3692,-1.3699,-1.3706,-1.3727,-1.3735,-1.364,-1.3641,-1.3641,0,-1.3718,-1.3725,-1.3692,-1.3702,-1.3699,-1.3657,-1.3675,-1.3667,-1.3652,-1.3651,-1.3631,-1.3633,-1.3621,-1.364,-1.3654,-1.3652,-1.3656,-1.364,-1.3701,-1.3707,-1.3713,-1.3732,-1.374,-1.3644,-1.3644,-1.3643,-1.3643,0,-1.3779,-1.3784,-1.38,-1.3786,-1.3784,-1.3798,-1.3768,-1.377,-1.3748,-1.3731,-1.3744,-1.3727,-1.3723,-1.3725,-1.3705,-1.3742,-1.3731,-1.3707,-1.3673,-1.3726,-1.3744,-1.3751,-1.3649,-1.3647,-1.3646,-1.3646,0,0,-1.3881,-1.3846,-1.3853,-1.3846,-1.3824,-1.3828,-1.3839,-1.3834,-1.3836,-1.3827,-1.3836,-1.3838,-1.3815,-1.3811,-1.3789,-1.3801,-1.3848,-1.3774,-1.3773,-1.3789,-1.3888,-1.3907,-1.3917,-1.383,-1.3831,-1.3832,-1.3889,0,-1.394,-1.3958,-1.3928,-1.3953,-1.3958,-1.3916,-1.3927,-1.3915,-1.3898,-1.3899,-1.388,-1.3883,-1.3851,-1.3848,-1.3858,-1.384,-1.3867,-1.3835,-1.3839,-1.384,-1.3846,-1.3926,-1.3947,-1.4001,-1.3896,-1.3897,-1.3898,0,-1.4012,-1.4005,-1.403,-1.4006,-1.4007,-1.4017,-1.4008,-1.401,-1.3995,-1.3982,-1.3976,-1.3949,-1.3959,-1.3925,-1.3939,-1.3917,-1.3917,-1.3908,-1.3909,-1.391,-1.3873,-1.393,-1.4018,-1.4027,-1.3908,-1.3907,-1.3907,0,-1.4085,-1.4081,-1.4096,-1.4091,-1.4063,-1.407,-1.4059,-1.4042,-1.4041,-1.4033,-1.4032,-1.4026,-1.4024,-1.402,-1.3992,-1.397,-1.4009,-1.3973,-1.3999,-1.4,-1.4011,-1.4011,-1.4101,-1.4008,-1.4008,-1.4008,-1.4008,0,-1.4155,-1.4173,-1.4128,-1.4138,-1.4156,-1.412,-1.4139,-1.4124,-1.4109,-1.4115,-1.4078,-1.4084,-1.4047,-1.4049,-1.4027,-1.4041,-1.404,-1.403,-1.4025,-1.4034,-1.4036,-1.4035,-1.4031,-1.401,-1.401,-1.4009,-1.4009,0,-1.4241,-1.4212,-1.4225,-1.4196,-1.4189,-1.4204,-1.418,-1.4187,-1.4167,-1.4174,-1.4174,-1.4142,-1.4143,-1.4114,-1.4109,-1.4094,-1.4118,-1.4105,-1.4124,-1.412,-1.4148,-1.4146,-1.4242,-1.4253,-1.4152,-1.4153,-1.4154,0,-1.4288,-1.43,-1.4273,-1.4273,-1.4263,-1.4265,-1.4262,-1.4227,-1.4226,-1.4209,-1.4219,-1.4216,-1.4212,-1.4214,-1.4191,-1.4187,-1.4174,-1.4208,-1.4173,-1.4183,-1.4176,-1.4176,-1.4177,-1.4216,-1.4217,-1.4218,-1.4219,0,-1.4376,-1.4361,-1.4358,-1.435,-1.4348,-1.434,-1.433,-1.4333,-1.4294,-1.4295,-1.4294,-1.4291,-1.4285,-1.4282,-1.4273,-1.4262,-1.4235,-1.423,-1.4236,-1.4247,-1.4257,-1.4253,-1.4145,-1.4228,-1.4227,-1.4227,-1.4226,-1.4226,-1.4445,-1.4453,-1.4435,-1.4433,-1.4421,-1.4412,-1.4418,-1.4397,-1.4396,-1.4387,-1.4366,-1.4369,-1.4353,-1.4337,-1.4328,-1.433,-1.4313,-1.4322,-1.4324,-1.4327,-1.4333,-1.4255,-1.4328,-1.4328,-1.4327,-1.4327,-1.4327,0,-1.4532,-1.4517,-1.4515,-1.4502,-1.45,-1.4472,-1.4459,-1.446,-1.4463,-1.4449,-1.4445,-1.4444,-1.4441,-1.4417,-1.4411,-1.4417,-1.4405,-1.4417,-1.4417,-1.4415,-1.4348,-1.4344,-1.4427,-1.4427,-1.4427,-1.4427,-1.4427,-1.4427,-1.4577,-1.459,-1.4572,-1.4579,-1.4564,-1.4566,-1.456,-1.4552,-1.4541,-1.4541,-1.4538,-1.4521,-1.4504,-1.4496,-1.4492,-1.4485,-1.4485,-1.4502,-1.4491,-1.4429,-1.442,-1.441,-1.4406,-1.4502,-1.4502,-1.4558,-1.4559,-1.4559]}]]